Location: Wellington
(41.3000°S, 174.8000°E)
Time: 11:20:07
(UTC+13:00)

ISS - Visible Passes

Search period start: 19 October 2017 00:00
Search period end: 29 October 2017 00:00
Orbit: 401 x 408 km, 51.6° (Epoch: 19 October)

Date Brightness Start Highest point End Pass type
(mag) Time Alt. Az. Time Alt. Az. Time Alt. Az.
19 Oct -0.8 03:35:28 15° S 03:35:28 15° S 03:37:24 10° SE visible
19 Oct -2.0 05:09:32 10° SW 05:12:38 33° SSE 05:15:42 10° E visible
20 Oct -1.4 04:18:02 14° SSW 04:20:10 23° SSE 04:22:56 10° ESE visible
20 Oct -3.8 05:53:35 10° WSW 05:56:55 66° NW 06:00:12 10° NE visible
21 Oct -0.9 03:28:07 18° SSE 03:28:07 18° SSE 03:30:03 10° ESE visible
21 Oct -3.4 05:01:16 10° SW 05:04:37 66° SSE 05:07:55 10° ENE visible
22 Oct -2.4 04:11:14 30° SSW 04:12:13 38° SSE 04:15:23 10° E visible
22 Oct -2.7 05:45:44 10° WSW 05:48:37 27° NW 05:51:27 10° NNE visible
23 Oct -0.7 03:22:08 13° ESE 03:22:08 13° ESE 03:22:38 10° E visible
23 Oct -3.7 04:54:52 27° WSW 04:56:24 52° NW 04:59:38 10° NE visible
23 Oct -2.3 21:32:37 10° NNW 21:34:12 24° NNW 21:34:12 24° NNW visible
24 Oct -1.5 04:06:25 18° ENE 04:06:25 18° ENE 04:07:25 10° ENE visible
24 Oct -1.7 05:39:12 11° WNW 05:40:06 11° NW 05:41:16 10° NNW visible
24 Oct -2.6 20:40:50 10° N 20:43:36 24° NE 20:46:16 11° E visible
24 Oct -2.1 22:16:43 10° WNW 22:19:03 34° WSW 22:19:03 34° WSW visible
25 Oct -3.6 21:24:10 10° WNW 21:27:30 74° SW 21:30:25 13° SE visible
25 Oct -0.7 23:01:56 10° WSW 23:03:09 16° SW 23:03:09 16° SW visible
26 Oct -3.7 20:31:52 10° NW 20:35:09 58° NE 20:38:28 10° ESE visible
26 Oct -1.5 22:08:59 10° W 22:11:50 25° SSW 22:13:53 15° SSE visible
27 Oct -2.2 21:16:08 10° W 21:19:17 36° SSW 21:22:26 10° SE visible
27 Oct -0.8 22:54:25 10° SW 22:56:30 15° S 22:56:50 15° S visible
28 Oct -3.1 20:23:28 10° WNW 20:26:47 60° SSW 20:30:08 10° SE visible
28 Oct -0.9 22:01:25 10° WSW 22:03:48 18° SSW 22:06:11 10° SSE visible
28 Oct -0.2 23:39:15 10° SSW 23:39:28 11° SSW 23:39:28 11° SSW visible
